Flag for Luxembourg Weather past 2 weeks in Differdange, Luxembourg

48 °F

Mostly cloudy.

Feels Like: 41 °F
Forecast: 46 / 48 °F
Wind: 23 mph from Southwest

Location: Luxembourg Airport

Current Time: Nov 29, 2015 at 8:39:20 PM

Latest Report: Nov 29, 2015 at 7:50 PM

Visibility: N/A

Pressure: 30.04 "Hg

Humidity: 87%

Dew point: 45 °F

Location of DifferdangeLocation

Historic Weather in Differdange — Graph


Differdange temperature yesterday

Maximum temperature yesterday: 41 °F (at 1:20 PM)
Minimum temperature yesterday: 30 °F (at 12:20 AM)
Average temperature yesterday: 36 °F

Past Weeks' High & Low Weather Summary

High57 °F (Nov 17, 9:50 PM)100% (Nov 15, 12:50 AM)30.27 "Hg (Nov 15, 12:50 AM)
Low27 °F (Nov 24, 8:50 AM)65% (Nov 23, 1:20 PM)29.42 "Hg (Nov 21, 9:20 AM)
Average41 °F92%29.94 "Hg
* Reported Nov 14 7:20 PM — Nov 29 7:20 PM, Differdange, Weather by CustomWeather, © 2015

Note: Actual official high and low records may vary slightly from our data, if they occured in-between our weather recording intervals... More about our weather records


Differdange weather history for previous 24 hours

Time TempWeatherWind HumidityBarometerVisibility
7:20 PM
Sun, Nov 29
48 °FPassing clouds.21 mph87%30.01 "HgN/A
6:50 PM48 °FLight rain. Partly cloudy.23 mph87%30.01 "Hg5 mi
6:20 PM48 °FLight rain. Partly cloudy.22 mph87%30.01 "HgN/A
5:50 PM48 °FPartly cloudy.22 mph87%30.01 "HgN/A
5:20 PM48 °FPartly cloudy.18 mph87%30.01 "HgN/A
4:50 PM48 °FPassing clouds.21 mph87%30.01 "HgN/A
4:20 PM48 °FLight rain. Broken clouds.22 mph87%29.98 "Hg5 mi
3:50 PM48 °FBroken clouds.21 mph87%29.98 "HgN/A
3:20 PM48 °FBroken clouds.23 mph87%29.98 "HgN/A
2:50 PM48 °FLight rain. Broken clouds.23 mph87%29.98 "HgN/A
2:20 PM48 °FLight rain. Broken clouds.21 mph87%29.98 "HgN/A
1:50 PM46 °FSprinkles. Broken clouds.21 mph100%29.98 "Hg5 mi
1:20 PM46 °FSprinkles. Broken clouds.21 mph100%29.98 "HgN/A
12:50 PM46 °FSprinkles. Broken clouds.17 mph93%29.98 "HgN/A
12:20 PM46 °FBroken clouds.18 mph93%29.98 "HgN/A
11:50 AM46 °FSprinkles. Broken clouds.18 mph93%29.98 "HgN/A
11:20 AM46 °FBroken clouds.20 mph93%29.98 "Hg5 mi
10:50 AM46 °FBroken clouds.17 mph93%29.98 "HgN/A
10:20 AM45 °FRain. Mostly cloudy.15 mph100%29.98 "Hg3 mi
9:50 AM45 °FRain. Mostly cloudy.15 mph93%29.98 "Hg6 mi
9:20 AM43 °FLight rain. Mostly cloudy.15 mph100%29.95 "Hg3 mi
8:50 AM43 °FLight rain. Mostly cloudy.15 mph100%29.95 "Hg2 mi
7:50 AM43 °FLight rain. Mostly cloudy.16 mph100%29.95 "Hg3 mi
7:20 AM41 °FLight rain. Mostly cloudy.14 mph100%29.95 "Hg2 mi
6:50 AM41 °FLight rain. Passing clouds.14 mph100%29.95 "Hg5 mi
5:50 AM41 °FLight rain. Passing clouds.17 mph93%29.95 "Hg4 mi
5:20 AM41 °FLight rain. Passing clouds.15 mph93%29.95 "Hg4 mi
4:50 AM41 °FLight rain. Passing clouds.16 mph93%29.95 "Hg5 mi
4:20 AM41 °FLight rain. Passing clouds.17 mph93%29.95 "Hg6 mi
3:50 AM39 °FLight rain. Passing clouds.17 mph100%29.95 "Hg5 mi
3:20 AM39 °FLight rain. Mostly cloudy.16 mph100%29.95 "HgN/A
2:50 AM39 °FLight rain. Passing clouds.16 mph93%29.95 "Hg6 mi
2:20 AM39 °FLight rain. Passing clouds.18 mph93%29.95 "Hg6 mi
1:50 AM39 °FLight rain. Overcast.16 mph93%29.98 "HgN/A
1:20 AM37 °FLight rain. Overcast.16 mph100%29.98 "Hg6 mi
12:50 AM37 °FLight rain. Overcast.16 mph93%30.01 "Hg5 mi
12:20 AM39 °FLight rain. Passing clouds.18 mph87%30.01 "HgN/A
11:50 PM
Sat, Nov 28
39 °FLight rain. Overcast.20 mph87%30.01 "HgN/A
10:50 PM39 °FPassing clouds.18 mph87%30.04 "HgN/A
9:50 PM39 °FPartly cloudy.15 mph87%30.04 "HgN/A
9:20 PM39 °FPassing clouds.16 mph87%30.07 "HgN/A
8:50 PM39 °FPartly cloudy.14 mph87%30.07 "HgN/A
8:20 PM37 °FPassing clouds.15 mph87%30.07 "HgN/A
Weather by CustomWeather, © 2015

See weather overviewHow to use our weather pages